Location: Bezawada
(16.5136°N, 80.6297°E)
Time: 19:07:36
(UTC+00:00)

Ariane Rocket - Pass Details

Date: 27 February 2020
Orbit: 759 x 771 km, 98.7° (Epoch: 05 April)

Event Time Altitude Azimuth Distance (km) Brightness Sun altitude
Rises 14:16:21 0° 167° (SSE) 3,226 6.1 -22.9°
Reaches altitude 10° 14:18:39 10° 167° (SSE) 2,302 5.4 -23.5°
Maximum altitude 14:23:44 90° 270° (W) 773 2.9 -24.7°
Drops below altitude 10° 14:28:50 10° 348° (NNW) 2,309 5.6 -25.9°
Sets 14:31:08 0° 348° (NNW) 3,237 6.4 -26.5°
